sat.trackr.live / text

‹ back to catalog

MORELOS 3

NORAD 40946 · 2015-056A

PAYLOAD ACTIVE UNKNOWN

§ Identity

Operator
Country
MEX
Launch date
2015-10-02
Launch site
AFETR
Launch vehicle
Mass (kg)
RCS (m²)
25.04

Purposes: comms

External: N2YO · Heavens-Above · Gunter

§ Orbital elements

Epoch: 2026-09-20T00:59:12.702336Z

Period
1,436.09 min
Inclination
3.2738°
Eccentricity
0.0003286
Mean motion
1.00272250 rev/d
Perigee alt
35,772.6 km
Apogee alt
35,800.3 km
Semi-major
42,164.6 km
B*
0.0000e+0
RAAN
17.3705°
Arg perigee
184.5578°
Mean anomaly
58.7231°
Rev number
4,023

§ Raw data

MORELOS 31 40946U 15056A   26263.04111924 -.00000045  00000+0  00000+0 0  99992 40946   3.2738  17.3705 0003286 184.5578  58.7231  1.00272250 40232

JSON: /api/v1/satellites/40946 · /tle

For live sub-satellite position, see the globe view (requires WebGL).

§ Visibility from observer

Set your observer location to see the next 7 days of passes ≥ 10°. The values pass through the URL so the page stays shareable.

No JS? Fill the form by hand. The geolocation button needs JavaScript.